Terminal Aerodrome Forecast
Issued by NWS

Home | Current Version | Previous Version | Graphics & Text | Print | Product List | Glossary On
Versions: 1 2 3 4 5 6 7 8 9 10 11 12 13 14 15 16 17 18 19 20 21 22 23 24 25 26 27 28 29 30 31 32 33 34 35 36 37 38 39 40 41 42 43 44 45 46 47 48 49 50
000
FTUS43 KLOT 261100
TAFGYY
TAF
KGYY 261136Z 2612/2712 21007KT P6SM VCTS SCT035 BKN060CB
      TEMPO 2612/2614 3SM TSRA BKN015 OVC035CB
     FM261500 36008KT P6SM VCSH SCT040 BKN250
     FM261700 02008KT P6SM VCTS SCT040CB BKN250
     FM261900 04010KT P6SM FEW040 BKN250
     FM270100 03006KT P6SM FEW150 BKN250=

USA.gov is the U.S. government's official web portal to all federal, state and local government web resources and services.